Time,TemperatureF,DewpointF,PressureIn,WindDirection,WindDirectionDegrees,WindSpeedMPH,WindSpeedGustMPH,Humidity,HourlyPrecipIn,Conditions,Clouds,dailyrainin,SoftwareType,DateUTC
2013-01-19 00:04:00,18.1,6.6,30.12,SSE,157,4.3,-999.0,60,-99.99,,,0.00,Acu-Link.com,2013-01-19 05:04:00,
2013-01-19 00:19:00,18.7,7.1,30.12,South,180,2.7,-999.0,60,-99.99,,,0.00,Acu-Link.com,2013-01-19 05:19:00,
2013-01-19 00:34:00,18.7,7.5,30.12,ESE,112,3.1,-999.0,61,-99.99,,,0.00,Acu-Link.com,2013-01-19 05:34:00,
2013-01-19 00:49:00,19.2,7.6,30.09,West,270,1.6,-999.0,60,-99.99,,,0.00,Acu-Link.com,2013-01-19 05:49:00,
2013-01-19 01:05:00,19.9,8.0,30.09,SE,135,2.2,-999.0,59,-99.99,,,0.00,Acu-Link.com,2013-01-19 06:05:00,
2013-01-19 01:20:00,20.8,8.8,30.09,SSE,157,3.8,-999.0,59,-99.99,,,0.00,Acu-Link.com,2013-01-19 06:20:00,
2013-01-19 01:35:00,20.8,8.8,30.08,NNW,337,2.2,-999.0,59,-99.99,,,0.00,Acu-Link.com,2013-01-19 06:35:00,
2013-01-19 01:50:00,21.2,9.1,30.08,SSW,202,2.2,-999.0,59,-99.99,,,0.00,Acu-Link.com,2013-01-19 06:50:00,
2013-01-19 02:05:00,21.7,9.6,30.07,SSW,202,1.6,-999.0,59,-99.99,,,0.00,Acu-Link.com,2013-01-19 07:05:00,
2013-01-19 02:21:00,22.8,11.0,30.06,NNW,337,2.7,-999.0,60,-99.99,,,0.00,Acu-Link.com,2013-01-19 07:21:00,
2013-01-19 02:36:00,23.9,10.9,30.04,North,0,3.1,-999.0,57,-99.99,,,0.00,Acu-Link.com,2013-01-19 07:36:00,
2013-01-19 02:51:00,23.9,11.3,30.06,WNW,292,2.2,-999.0,58,-99.99,,,0.00,Acu-Link.com,2013-01-19 07:51:00,
2013-01-19 03:06:00,24.3,11.6,30.05,SW,225,1.6,-999.0,58,-99.99,,,0.00,Acu-Link.com,2013-01-19 08:06:00,
2013-01-19 03:21:00,24.3,11.6,30.04,SSW,202,7.4,-999.0,58,-99.99,,,0.00,Acu-Link.com,2013-01-19 08:21:00,
2013-01-19 03:37:00,24.6,11.6,30.03,South,180,3.1,-999.0,57,-99.99,,,0.00,Acu-Link.com,2013-01-19 08:37:00,
2013-01-19 03:52:00,24.8,12.1,30.02,SSW,202,1.6,-999.0,58,-99.99,,,0.00,Acu-Link.com,2013-01-19 08:52:00,
2013-01-19 04:35:00,24.6,12.0,30.02,North,0,1.6,-999.0,58,-99.99,,,0.00,Acu-Link.com,2013-01-19 09:35:00,
2013-01-19 04:51:00,25.0,12.3,29.99,East,90,1.6,-999.0,58,-99.99,,,0.00,Acu-Link.com,2013-01-19 09:51:00,
2013-01-19 05:06:00,25.2,12.5,30.00,SSE,157,3.1,-999.0,58,-99.99,,,0.00,Acu-Link.com,2013-01-19 10:06:00,
2013-01-19 05:36:00,26.1,13.3,29.97,ENE,67,2.2,-999.0,58,-99.99,,,0.00,Acu-Link.com,2013-01-19 10:36:00,
2013-01-19 05:51:00,26.2,13.9,29.98,NW,315,2.2,-999.0,59,-99.99,,,0.00,Acu-Link.com,2013-01-19 10:51:00,
2013-01-19 06:07:00,26.6,14.6,29.96,WNW,292,4.7,-999.0,60,-99.99,,,0.00,Acu-Link.com,2013-01-19 11:07:00,
2013-01-19 07:55:00,31.6,18.2,29.92,SE,135,5.1,-999.0,57,-99.99,,,0.00,Acu-Link.com,2013-01-19 12:55:00,
2013-01-19 08:11:00,32.7,18.8,29.92,SSE,157,5.8,-999.0,56,-99.99,,,0.00,Acu-Link.com,2013-01-19 13:11:00,
2013-01-19 08:26:00,33.4,19.9,29.91,ESE,112,5.1,-999.0,57,-99.99,,,0.00,Acu-Link.com,2013-01-19 13:26:00,
2013-01-19 08:41:00,33.6,19.6,29.92,West,270,4.7,-999.0,56,-99.99,,,0.00,Acu-Link.com,2013-01-19 13:41:00,
2013-01-19 08:56:00,33.8,20.2,29.92,NW,315,3.1,-999.0,57,-99.99,,,0.00,Acu-Link.com,2013-01-19 13:56:00,
2013-01-19 09:12:00,34.2,20.5,29.92,South,180,4.3,-999.0,57,-99.99,,,0.00,Acu-Link.com,2013-01-19 14:12:00,
2013-01-19 09:27:00,34.5,21.3,29.92,SSW,202,4.7,-999.0,58,-99.99,,,0.00,Acu-Link.com,2013-01-19 14:27:00,
2013-01-19 09:42:00,35.2,21.1,29.91,WSW,247,7.8,-999.0,56,-99.99,,,0.00,Acu-Link.com,2013-01-19 14:42:00,
2013-01-19 09:57:00,35.4,21.3,29.91,SSW,202,4.7,-999.0,56,-99.99,,,0.00,Acu-Link.com,2013-01-19 14:57:00,
2013-01-19 10:12:00,35.2,21.6,29.91,WNW,292,4.7,-999.0,57,-99.99,,,0.00,Acu-Link.com,2013-01-19 15:12:00,
2013-01-19 10:28:00,35.8,22.1,29.91,West,270,5.8,-999.0,57,-99.99,,,0.00,Acu-Link.com,2013-01-19 15:28:00,
2013-01-19 10:43:00,35.8,21.6,29.90,West,270,3.8,-999.0,56,-99.99,,,0.00,Acu-Link.com,2013-01-19 15:43:00,
2013-01-19 10:58:00,36.3,22.1,29.89,SSE,157,4.3,-999.0,56,-99.99,,,0.00,Acu-Link.com,2013-01-19 15:58:00,
2013-01-19 11:13:00,36.7,22.5,29.87,ENE,67,6.7,-999.0,56,-99.99,,,0.00,Acu-Link.com,2013-01-19 16:13:00,
2013-01-19 11:28:00,36.9,22.7,29.85,South,180,6.3,-999.0,56,-99.99,,,0.00,Acu-Link.com,2013-01-19 16:28:00,
2013-01-19 11:44:00,37.4,22.7,29.84,South,180,7.4,-999.0,55,-99.99,,,0.00,Acu-Link.com,2013-01-19 16:44:00,
2013-01-19 11:59:00,37.8,23.1,29.84,NW,315,4.7,-999.0,55,-99.99,,,0.00,Acu-Link.com,2013-01-19 16:59:00,
2013-01-19 12:29:00,39.6,23.4,29.81,South,180,2.7,-999.0,52,-99.99,,,0.00,Acu-Link.com,2013-01-19 17:29:00,
2013-01-19 13:00:00,41.7,24.5,29.80,WNW,292,3.1,-999.0,50,-99.99,,,0.00,Acu-Link.com,2013-01-19 18:00:00,
2013-01-19 13:15:00,42.1,23.8,29.78,ESE,112,5.8,-999.0,48,-99.99,,,0.00,Acu-Link.com,2013-01-19 18:15:00,
2013-01-19 13:30:00,43.0,24.1,29.78,ENE,67,3.8,-999.0,47,-99.99,,,0.00,Acu-Link.com,2013-01-19 18:30:00,
2013-01-19 13:45:00,43.0,23.6,29.78,ENE,67,6.3,-999.0,46,-99.99,,,0.00,Acu-Link.com,2013-01-19 18:45:00,
2013-01-19 14:16:00,43.7,23.8,29.77,West,270,7.8,-999.0,45,-99.99,,,0.00,Acu-Link.com,2013-01-19 19:16:00,
2013-01-19 14:31:00,44.1,24.1,29.76,West,270,3.8,-999.0,45,-99.99,,,0.00,Acu-Link.com,2013-01-19 19:31:00,
2013-01-19 14:46:00,44.1,24.1,29.77,SE,135,2.7,-999.0,45,-99.99,,,0.00,Acu-Link.com,2013-01-19 19:46:00,
2013-01-19 15:01:00,43.7,24.8,29.77,East,90,1.1,-999.0,47,-99.99,,,0.00,Acu-Link.com,2013-01-19 20:01:00,
2013-01-19 15:17:00,43.5,24.6,29.77,WNW,292,2.7,-999.0,47,-99.99,,,0.00,Acu-Link.com,2013-01-19 20:17:00,
2013-01-19 15:32:00,43.9,25.0,29.77,NW,315,4.7,-999.0,47,-99.99,,,0.00,Acu-Link.com,2013-01-19 20:32:00,
2013-01-19 15:47:00,42.4,25.1,29.77,SE,135,3.1,-999.0,50,-99.99,,,0.00,Acu-Link.com,2013-01-19 20:47:00,
2013-01-19 16:02:00,42.1,24.8,29.77,ESE,112,2.2,-999.0,50,-99.99,,,0.00,Acu-Link.com,2013-01-19 21:02:00,
2013-01-19 16:33:00,41.4,25.1,29.77,West,270,2.2,-999.0,52,-99.99,,,0.00,Acu-Link.com,2013-01-19 21:33:00,
2013-01-19 16:48:00,40.5,25.1,29.77,WNW,292,1.6,-999.0,54,-99.99,,,0.00,Acu-Link.com,2013-01-19 21:48:00,
2013-01-19 17:03:00,40.1,24.8,29.77,WNW,292,2.7,-999.0,54,-99.99,,,0.00,Acu-Link.com,2013-01-19 22:03:00,
2013-01-19 17:18:00,39.4,25.0,29.77,SW,225,1.1,-999.0,56,-99.99,,,0.00,Acu-Link.com,2013-01-19 22:18:00,
2013-01-19 17:49:00,38.5,25.0,29.77,North,0,2.2,-999.0,58,-99.99,,,0.00,Acu-Link.com,2013-01-19 22:49:00,
2013-01-19 18:04:00,37.9,25.3,29.77,WSW,247,3.1,-999.0,60,-99.99,,,0.00,Acu-Link.com,2013-01-19 23:04:00,
2013-01-19 18:19:00,37.6,25.0,29.76,West,270,2.2,-999.0,60,-99.99,,,0.00,Acu-Link.com,2013-01-19 23:19:00,
2013-01-19 18:34:00,37.6,25.0,29.76,SSW,202,4.3,-999.0,60,-99.99,,,0.00,Acu-Link.com,2013-01-19 23:34:00,
2013-01-19 19:05:00,37.8,25.1,29.76,SW,225,2.2,-999.0,60,-99.99,,,0.00,Acu-Link.com,2013-01-20 00:05:00,
2013-01-19 19:20:00,37.6,25.0,29.76,NW,315,2.2,-999.0,60,-99.99,,,0.00,Acu-Link.com,2013-01-20 00:20:00,
2013-01-19 19:35:00,38.5,25.0,29.75,ESE,112,2.2,-999.0,58,-99.99,,,0.00,Acu-Link.com,2013-01-20 00:35:00,
2013-01-19 19:50:00,39.2,24.8,29.75,West,270,1.6,-999.0,56,-99.99,,,0.00,Acu-Link.com,2013-01-20 00:50:00,
2013-01-19 21:07:00,38.3,24.8,29.73,NNE,22,1.6,-999.0,58,-99.99,,,0.00,Acu-Link.com,2013-01-20 02:07:00,
2013-01-19 21:22:00,37.2,24.6,29.72,SW,225,1.1,-999.0,60,-99.99,,,0.00,Acu-Link.com,2013-01-20 02:22:00,
2013-01-19 21:37:00,36.1,24.8,29.71,South,180,0.0,-999.0,63,-99.99,,,0.00,Acu-Link.com,2013-01-20 02:37:00,
2013-01-19 21:52:00,35.6,25.0,29.71,SW,225,0.0,-999.0,65,-99.99,,,0.00,Acu-Link.com,2013-01-20 02:52:00,
2013-01-19 22:07:00,35.2,25.4,29.70,NE,45,1.6,-999.0,67,-99.99,,,0.00,Acu-Link.com,2013-01-20 03:07:00,
2013-01-19 22:23:00,34.9,25.1,29.69,ESE,112,0.0,-999.0,67,-99.99,,,0.00,Acu-Link.com,2013-01-20 03:23:00,
2013-01-19 22:38:00,36.9,26.9,29.68,NW,315,3.8,-999.0,67,-99.99,,,0.00,Acu-Link.com,2013-01-20 03:38:00,
2013-01-19 22:53:00,37.2,27.6,29.67,SSE,157,3.8,-999.0,68,-99.99,,,0.00,Acu-Link.com,2013-01-20 03:53:00,
2013-01-19 23:08:00,37.6,28.7,29.66,South,180,1.1,-999.0,70,-99.99,,,0.00,Acu-Link.com,2013-01-20 04:08:00,
2013-01-19 23:23:00,36.9,28.4,29.66,South,180,2.2,-999.0,71,-99.99,,,0.00,Acu-Link.com,2013-01-20 04:23:00,
2013-01-19 23:39:00,36.1,29.0,29.65,SE,135,1.6,-999.0,75,-99.99,,,0.00,Acu-Link.com,2013-01-20 04:39:00,
2013-01-19 23:54:00,35.6,29.1,29.64,SW,225,1.6,-999.0,77,-99.99,,,0.00,Acu-Link.com,2013-01-20 04:54:00,